Location: Góry Miechowskie
(50.3599°N, 20.1803°E)
Time: 22:55:07
(UTC+00:00)

Tiros 1 despin weight - Pass Details

Date: 16 September 2024
Orbit: 572 x 614 km, 48.2° (Epoch: 12 October)

Event Time Altitude Azimuth Distance (km) Brightness Sun altitude
Rises 02:18:49 0° 235° (SW) 2,864 - -18.7°
Reaches altitude 10° 02:21:12 10° 228° (SW) 1,967 - -18.4°
Exits shadow 02:23:53 30° 204° (SSW) 1,098 ? -18.0°
Maximum altitude 02:25:27 42° 158° (SSE) 886 ? -17.8°
Drops below altitude 10° 02:29:45 10° 88° (E) 1,981 ? -17.2°
Sets 02:32:09 0° 81° (E) 2,888 ? -16.9°
